Regional Weather Roundup
Issued by NWS Northern Indiana

Home | Current Version | Previous Version | Graphics & Text | Print | Product List | Glossary On
Versions: 1 2 3 4 5 6 7 8 9 10 11 12 13 14 15 16 17 18 19 20 21 22 23 24 25 26 27 28 29 30 31 32 33 34 35 36 37 38 39 40 41 42 43 44 45 46 47 48 49 50
000
ASUS43 KIWX 231300
RWRIWX

KIWX WEATHER ROUNDUP
NATIONAL WEATHER SERVICE NORTHERN INDIANA
900 AM EDT WED AUG 23 2017

NOTE: "FAIR" INDICATES FEW OR NO CLOUDS BELOW 12,000 FEET WITH NO
SIGNIFICANT WEATHER AND/OR OBSTRUCTIONS TO VISIBILITY.

* THESE STATIONS ARE NOT UNDER NWS QUALITY CONTROL. THEY ALSO MAY NOT
  REPORT WEATHER SUCH AS PRECIPITATION OR FOG.

INZ001>027-231400-
NORTHERN INDIANA

CITY           SKY/WX    TMP DP  RH WIND       PRES   REMARKS
GARY*          SUNNY     64  52  63 W9        30.04S
MICHIGAN CITY* SUNNY     68  54  60 NW10G16   30.02S
SOUTH BEND     SUNNY     65  58  78 W6        30.02R
ELKHART*       SUNNY     63  57  82 W7        30.01R
GOSHEN         SUNNY     62  56  80 W5        30.01R
MONTICELLO*    SUNNY     59  56  91 W5        30.04R
FORT WAYNE     MOSUNNY   63  57  81 W6        30.01S
PERU/GRISSOM   SUNNY     62  57  84 NW7       30.03R

$$
INZ028>050-231400-
CENTRAL INDIANA

CITY           SKY/WX    TMP DP  RH WIND       PRES   REMARKS
LAFAYETTE      SUNNY     61  56  83 NW5       30.05R
KOKOMO*        SUNNY     63  57  81 W7        30.04S
MUNCIE*        SUNNY     65  59  81 W5        30.03R
INDIANAPOLIS   PTSUNNY   64  56  75 NW7       30.04R

$$
MIZ043>046-050>051-056>058-064>065-071>073-077>080-231400-
SOUTHWEST LOWER MICHIGAN

CITY           SKY/WX    TMP DP  RH WIND       PRES   REMARKS
BATTLE CREEK   SUNNY     64  54  69 W9        29.99R
BENTON HARBOR  SUNNY     70  53  54 W10G20    30.00R
COLDWATER*     SUNNY     63  58  84 W6        29.99S
HILLSDALE*     SUNNY     61  54  77 NW7       29.99R
HOLLAND        MOSUNNY   68  55  63 NW9G18    29.99R
GRAND RAPIDS   MOSUNNY   65  55  70 W7        29.97S
KALAMAZOO      SUNNY     65  54  67 W5        29.99S
STURGIS*       SUNNY     62  57  84 CALM      29.99S
THREE RIVERS*  FAIR      66  58  74 W7        30.00S

$$
OHZ001>008-015>018-024>025-231400-
NORTHWEST OHIO

CITY           SKY/WX    TMP DP  RH WIND       PRES   REMARKS
DEFIANCE       SUNNY     62  56  80 NW3       30.00R
FINDLAY        SUNNY     63  56  78 W7        29.99R
TOLEDO EXPRESS SUNNY     62  57  83 W7        29.98R
TOLEDO METCALF SUNNY     64  57  78 W6        29.98S
LIMA           SUNNY     62  59  90 W5        30.01R

$$
AND FOR LAKE MICHIGAN COASTAL AND OPEN LAKE BUOY OBSERVATIONS

STATION/POSITION TEMP    WIND        PRES    VSBY  WAVE
                 AIR SEA DIR/SP/G                  HT/PER
                 (F)     (DEG/KT/KT) (MB)    (MI)  (FT/S)
CALUMET HARBOR    63     260/  4/  7 1016.3R
MICHIGAN CITY     69     280/ 16/ 19   N/A
BURNS HARBOR      69     290/ 13/ 15 1017.3R
SAINT JOSEPH      70     310/ 11/ 17 1016.3
SOUTH LAKE BUOY   67 71  330/ 17/ 21 1015.1          4/ 5
4 MI NW BRIDGMAN  70 73  340/ 16/ 21 1016.1R         5/ 5
MICHIGAN CITY     69 73  300/ 14/ 19   N/A           5/ 6

$$
&&



USA.gov is the U.S. government's official web portal to all federal, state and local government web resources and services.